| time (UTC) | temp C | wind direction | speed KPH | gust KPH | rain 1hr cm | rain 24hr cm | rain mn cm | humidity % | barometer mb |
| 20260906193343 | 37 | 132 | 0.0 | 8.0 | 0.00 | 0.00 | 0.00 | 36 | 1013.4 |
| 20260906193102 | 37 | 203 | 1.6 | 11.3 | 0.00 | 0.00 | 0.00 | 35 | 1009.9 |
| 20260906192828 | 37 | 232 | 3.2 | 11.3 | 0.00 | 0.00 | 0.00 | 36 | 1013.5 |
| 20260906192325 | 37 | 209 | 0.0 | 12.9 | 0.00 | 0.00 | 0.00 | 35 | 1013.5 |
| 20260906191831 | 37 | 180 | 3.2 | 12.9 | 0.00 | 0.00 | 0.00 | 35 | 1013.6 |
| 20260906191533 | 37 | 56 | 0.0 | 1.6 | 0.00 | 0.00 | 0.00 | 38 | 1010.1 |
| 20260906191335 | 37 | 57 | 0.0 | 1.6 | 0.00 | 0.00 | 0.00 | 37 | 1013.7 |
| 20260906190837 | 37 | 268 | 0.0 | 9.7 | 0.00 | 0.00 | 0.00 | 36 | 1013.8 |
| 20260906190338 | 37 | 296 | 0.0 | 11.3 | 0.00 | 0.00 | 0.00 | 36 | 1013.9 |
| 20260906185843 | 37 | 145 | 3.2 | 12.9 | 0.00 | 0.00 | 0.00 | 38 | 1014.1 |
| 20260906185330 | 37 | 196 | 4.8 | 12.9 | 0.00 | 0.00 | 0.00 | 36 | 1014.1 |
| 20260906184841 | 37 | 217 | 1.6 | 11.3 | 0.00 | 0.00 | 0.00 | 36 | 1014.2 |
| 20260906184524 | 37 | 139 | 1.6 | 11.3 | 0.00 | 0.00 | 0.00 | 38 | 1010.7 |
| 20260906184327 | 37 | 160 | 1.6 | 6.4 | 0.00 | 0.00 | 0.00 | 36 | 1014.3 |
| 20260906183848 | 37 | 271 | 1.6 | 9.7 | 0.00 | 0.00 | 0.00 | 38 | 1014.4 |
| 20260906183331 | 37 | 252 | 1.6 | 12.9 | 0.00 | 0.00 | 0.00 | 37 | 1014.4 |
| 20260906183102 | 37 | 203 | 3.2 | 12.9 | 0.00 | 0.00 | 0.00 | 37 | 1010.9 |
| 20260906182835 | 37 | 147 | 3.2 | 12.9 | 0.00 | 0.00 | 0.00 | 37 | 1014.5 |
| 20260906182327 | 37 | 215 | 0.0 | 14.5 | 0.00 | 0.00 | 0.00 | 37 | 1014.6 |
| 20260906181828 | 36 | 133 | 4.8 | 14.5 | 0.00 | 0.00 | 0.00 | 38 | 1014.7 |
| 20260906181537 | 36 | 150 | 0.0 | 0.0 | 0.00 | 0.00 | 0.00 | 38 | 1011.3 |
| 20260906181356 | 36 | 225 | 0.0 | 0.0 | 0.00 | 0.00 | 0.00 | 38 | 1014.9 |
| 20260906180850 | 36 | 226 | 0.0 | 0.0 | 0.00 | 0.00 | 0.00 | 40 | 1014.9 |
| 20260906180338 | 36 | 196 | 0.0 | 4.8 | 0.00 | 0.00 | 0.00 | 38 | 1015.0 |
| 20260906180119 | 36 | 175 | 0.0 | 8.0 | 0.00 | 0.00 | 0.00 | 38 | 1011.5 |
| 20260906175841 | 36 | 157 | 0.0 | 8.0 | 0.00 | 0.00 | 0.00 | 38 | 1015.1 |
| 20260906175345 | 36 | 141 | 3.2 | 9.7 | 0.00 | 0.00 | 0.00 | 37 | 1015.3 |
| 20260906174818 | 36 | 244 | 0.0 | 9.7 | 0.00 | 0.00 | 0.00 | 40 | 1015.4 |
| 20260906174515 | 36 | 188 | 1.6 | 9.7 | 0.00 | 0.00 | 0.00 | 39 | 1011.9 |
| 20260906174346 | 37 | 232 | 0.0 | 8.0 | 0.00 | 0.00 | 0.00 | 39 | 1015.4 |
| 20260906173827 | 36 | 229 | 0.0 | 6.4 | 0.00 | 0.00 | 0.00 | 41 | 1015.5 |
| 20260906173327 | 36 | 269 | 0.0 | 6.4 | 0.00 | 0.00 | 0.00 | 40 | 1015.7 |
| 20260906173044 | 36 | 105 | 0.0 | 6.4 | 0.00 | 0.00 | 0.00 | 38 | 1012.1 |
| 20260906172827 | 36 | 134 | 0.0 | 6.4 | 0.00 | 0.00 | 0.00 | 40 | 1015.8 |
| 20260906172328 | 36 | 355 | 1.6 | 6.4 | 0.00 | 0.00 | 0.00 | 39 | 1015.8 |
| 20260906171830 | 36 | 174 | 0.0 | 4.8 | 0.00 | 0.00 | 0.00 | 39 | 1016.0 |
| 20260906171614 | 36 | 175 | 0.0 | 4.8 | 0.00 | 0.00 | 0.00 | 39 | 1012.5 |
| 20260906171318 | 36 | 237 | 0.0 | 4.8 | 0.00 | 0.00 | 0.00 | 40 | 1016.1 |
| 20260906170822 | 36 | 218 | 0.0 | 0.0 | 0.00 | 0.00 | 0.00 | 39 | 1016.2 |
| 20260906170327 | 36 | 238 | 0.0 | 0.0 | 0.00 | 0.00 | 0.00 | 41 | 1016.2 |
| 20260906170047 | 35 | 238 | 0.0 | 3.2 | 0.00 | 0.00 | 0.00 | 44 | 1012.7 |
| 20260906165833 | 35 | 238 | 0.0 | 3.2 | 0.00 | 0.00 | 0.00 | 42 | 1016.3 |
| 20260906165330 | 35 | 256 | 0.0 | 3.2 | 0.00 | 0.00 | 0.00 | 43 | 1016.3 |
| 20260906164836 | 35 | 267 | 0.0 | 0.0 | 0.00 | 0.00 | 0.00 | 43 | 1016.4 |
| 20260906164601 | 35 | 242 | 0.0 | 0.0 | 0.00 | 0.00 | 0.00 | 42 | 1012.9 |
| 20260906164324 | 35 | 213 | 0.0 | 0.0 | 0.00 | 0.00 | 0.00 | 42 | 1016.4 |
| 20260906163814 | 35 | 267 | 0.0 | 0.0 | 0.00 | 0.00 | 0.00 | 43 | 1016.4 |
| 20260906163335 | 35 | 244 | 0.0 | 0.0 | 0.00 | 0.00 | 0.00 | 43 | 1016.4 |
| 20260906163046 | 34 | 244 | 0.0 | 0.0 | 0.00 | 0.00 | 0.00 | 43 | 1012.9 |
| 20260906162837 | 35 | 243 | 0.0 | 0.0 | 0.00 | 0.00 | 0.00 | 43 | 1016.5 |
| 20260906162328 | 35 | 237 | 0.0 | 0.0 | 0.00 | 0.00 | 0.00 | 43 | 1016.5 |
| 20260906161903 | 34 | 169 | 0.0 | 0.0 | 0.00 | 0.00 | 0.00 | 43 | 1016.5 |
| 20260906161502 | 34 | 213 | 0.0 | 0.0 | 0.00 | 0.00 | 0.00 | 44 | 1012.9 |
| 20260906161335 | 34 | 261 | 0.0 | 0.0 | 0.00 | 0.00 | 0.00 | 43 | 1016.4 |
| 20260906160839 | 34 | 254 | 0.0 | 0.0 | 0.00 | 0.00 | 0.00 | 45 | 1016.5 |
| 20260906160319 | 33 | 254 | 0.0 | 6.4 | 0.00 | 0.00 | 0.00 | 46 | 1016.4 |
| 20260906160029 | 33 | 254 | 0.0 | 6.4 | 0.00 | 0.00 | 0.00 | 45 | 1012.9 |
| 20260906155820 | 33 | 269 | 0.0 | 6.4 | 0.00 | 0.00 | 0.00 | 46 | 1016.3 |
| 20260906155320 | 33 | 241 | 0.0 | 0.0 | 0.00 | 0.00 | 0.00 | 47 | 1016.4 |
| 20260906154824 | 33 | 301 | 0.0 | 0.0 | 0.00 | 0.00 | 0.00 | 46 | 1016.3 |
| 20260906154512 | 33 | 259 | 0.0 | 0.0 | 0.00 | 0.00 | 0.00 | 46 | 1012.7 |
| 20260906154328 | 33 | 271 | 0.0 | 0.0 | 0.00 | 0.00 | 0.00 | 46 | 1016.2 |
| 20260906153854 | 33 | 303 | 0.0 | 1.6 | 0.00 | 0.00 | 0.00 | 48 | 1016.2 |
| 20260906153316 | 33 | 291 | 0.0 | 3.2 | 0.00 | 0.00 | 0.00 | 49 | 1016.2 |
| 20260906153033 | 32 | 292 | 0.0 | 3.2 | 0.00 | 0.00 | 0.00 | 48 | 1012.7 |
| 20260906152819 | 33 | 292 | 0.0 | 3.2 | 0.00 | 0.00 | 0.00 | 48 | 1016.1 |
| 20260906152344 | 33 | 241 | 0.0 | 0.0 | 0.00 | 0.00 | 0.00 | 48 | 1016.1 |
| 20260906151847 | 32 | 262 | 0.0 | 1.6 | 0.00 | 0.00 | 0.00 | 50 | 1016.1 |
| 20260906151505 | 32 | 273 | 0.0 | 1.6 | 0.00 | 0.00 | 0.00 | 49 | 1012.6 |
| 20260906151318 | 32 | 264 | 0.0 | 1.6 | 0.00 | 0.00 | 0.00 | 49 | 1016.1 |
| 20260906150835 | 32 | 269 | 0.0 | 3.2 | 0.00 | 0.00 | 0.00 | 49 | 1016.1 |
| 20260906150322 | 32 | 247 | 0.0 | 1.6 | 0.00 | 0.00 | 0.00 | 50 | 1016.1 |
| 20260906150101 | 32 | 217 | 0.0 | 0.0 | 0.00 | 0.00 | 0.00 | 50 | 1012.5 |
| 20260906145821 | 32 | 259 | 0.0 | 0.0 | 0.00 | 0.00 | 0.00 | 51 | 1016.1 |
| 20260906145323 | 32 | 304 | 0.0 | 1.6 | 0.00 | 0.00 | 0.00 | 52 | 1016.0 |
| 20260906144827 | 32 | 186 | 0.0 | 1.6 | 0.00 | 0.00 | 0.00 | 52 | 1016.0 |
| 20260906144537 | 31 | 202 | 0.0 | 1.6 | 0.00 | 0.00 | 0.00 | 53 | 1012.5 |
| 20260906144328 | 31 | 202 | 0.0 | 1.6 | 0.00 | 0.00 | 0.00 | 53 | 1016.0 |
| 20260906143848 | 31 | 209 | 0.0 | 0.0 | 0.00 | 0.00 | 0.00 | 55 | 1016.1 |
| 20260906143347 | 31 | 209 | 0.0 | 0.0 | 0.00 | 0.00 | 0.00 | 58 | 1016.1 |
| 20260906143055 | 30 | 209 | 0.0 | 0.0 | 0.00 | 0.00 | 0.00 | 57 | 1012.7 |
| 20260906142849 | 30 | 192 | 0.0 | 0.0 | 0.00 | 0.00 | 0.00 | 58 | 1016.1 |
| 20260906142348 | 30 | 191 | 0.0 | 0.0 | 0.00 | 0.00 | 0.00 | 60 | 1016.1 |
| 20260906141826 | 29 | 191 | 0.0 | 0.0 | 0.00 | 0.00 | 0.00 | 60 | 1016.1 |
| 20260906141609 | 29 | 171 | 0.0 | 0.0 | 0.00 | 0.00 | 0.00 | 61 | 1012.6 |
| 20260906141321 | 29 | 171 | 0.0 | 0.0 | 0.00 | 0.00 | 0.00 | 62 | 1016.0 |
| 20260906140856 | 28 | 171 | 0.0 | 0.0 | 0.00 | 0.00 | 0.00 | 64 | 1016.0 |
| 20260906140328 | 28 | 171 | 0.0 | 0.0 | 0.00 | 0.00 | 0.00 | 65 | 1016.0 |
| 20260906140005 | 27 | 171 | 0.0 | 0.0 | 0.00 | 0.00 | 0.00 | 66 | 1012.6 |
| 20260906135829 | 27 | 171 | 0.0 | 0.0 | 0.00 | 0.00 | 0.00 | 67 | 1016.0 |
| 20260906135342 | 27 | 171 | 0.0 | 0.0 | 0.00 | 0.00 | 0.00 | 69 | 1016.0 |
| 20260906134826 | 27 | 171 | 0.0 | 0.0 | 0.00 | 0.00 | 0.00 | 70 | 1016.1 |
| 20260906134507 | 26 | 171 | 0.0 | 0.0 | 0.00 | 0.00 | 0.00 | 71 | 1012.5 |
| 20260906134402 | 26 | 171 | 0.0 | 0.0 | 0.00 | 0.00 | 0.00 | 71 | 1016.0 |
| 20260906133828 | 26 | 171 | 0.0 | 0.0 | 0.00 | 0.00 | 0.00 | 72 | 1015.9 |
| 20260906133313 | 25 | 171 | 0.0 | 0.0 | 0.00 | 0.00 | 0.00 | 74 | 1015.9 |
| 20260906133044 | 25 | 171 | 0.0 | 0.0 | 0.00 | 0.00 | 0.00 | 75 | 1012.4 |
| 20260906132838 | 25 | 171 | 0.0 | 0.0 | 0.00 | 0.00 | 0.00 | 75 | 1015.8 |
| 20260906132346 | 25 | 171 | 0.0 | 0.0 | 0.00 | 0.00 | 0.00 | 77 | 1015.8 |
| 20260906131835 | 24 | 171 | 0.0 | 0.0 | 0.00 | 0.00 | 0.00 | 78 | 1015.7 |
| 20260906131515 | 23 | 171 | 0.0 | 0.0 | 0.00 | 0.00 | 0.00 | 81 | 1012.2 |
| 20260906131316 | 23 | 171 | 0.0 | 0.0 | 0.00 | 0.00 | 0.00 | 81 | 1015.6 |
| 20260906130844 | 23 | 171 | 0.0 | 0.0 | 0.00 | 0.00 | 0.00 | 82 | 1015.5 |
| 20260906130320 | 23 | 171 | 0.0 | 0.0 | 0.00 | 0.00 | 0.00 | 83 | 1015.5 |
| 20260906130053 | 22 | 171 | 0.0 | 0.0 | 0.00 | 0.00 | 0.00 | 83 | 1012.1 |
| 20260906125824 | 22 | 171 | 0.0 | 0.0 | 0.00 | 0.00 | 0.00 | 84 | 1015.5 |
| 20260906125349 | 22 | 171 | 0.0 | 0.0 | 0.00 | 0.00 | 0.00 | 84 | 1015.5 |
| 20260906124836 | 22 | 171 | 0.0 | 0.0 | 0.00 | 0.00 | 0.00 | 86 | 1015.4 |
| 20260906124512 | 21 | 171 | 0.0 | 0.0 | 0.00 | 0.00 | 0.00 | 87 | 1011.9 |
| 20260906124334 | 21 | 171 | 0.0 | 0.0 | 0.00 | 0.00 | 0.00 | 87 | 1015.3 |
| 20260906123838 | 21 | 171 | 0.0 | 0.0 | 0.00 | 0.00 | 0.00 | 86 | 1015.2 |
| 20260906123320 | 21 | 171 | 0.0 | 0.0 | 0.00 | 0.00 | 0.00 | 85 | 1015.1 |
| 20260906123028 | 21 | 171 | 0.0 | 0.0 | 0.00 | 0.00 | 0.00 | 85 | 1011.6 |
| 20260906122849 | 21 | 171 | 0.0 | 0.0 | 0.00 | 0.00 | 0.00 | 85 | 1015.0 |
| 20260906122313 | 21 | 171 | 0.0 | 0.0 | 0.00 | 0.00 | 0.00 | 85 | 1015.0 |
| 20260906121817 | 21 | 171 | 0.0 | 0.0 | 0.00 | 0.00 | 0.00 | 85 | 1015.0 |
| 20260906121615 | 21 | 171 | 0.0 | 0.0 | 0.00 | 0.00 | 0.00 | 85 | 1011.5 |
| 20260906121350 | 21 | 171 | 0.0 | 0.0 | 0.00 | 0.00 | 0.00 | 85 | 1014.9 |
| 20260906120847 | 21 | 171 | 0.0 | 0.0 | 0.00 | 0.00 | 0.00 | 84 | 1014.7 |
| 20260906120354 | 21 | 171 | 0.0 | 0.0 | 0.00 | 0.00 | 0.00 | 85 | 1014.6 |
| 20260906120122 | 21 | 171 | 0.0 | 0.0 | 0.00 | 0.00 | 0.00 | 85 | 1011.0 |
| 20260906115823 | 21 | 171 | 0.0 | 0.0 | 0.00 | 0.00 | 0.00 | 85 | 1014.4 |
| 20260906115325 | 21 | 171 | 0.0 | 0.0 | 0.00 | 0.00 | 0.00 | 85 | 1014.4 |
| 20260906114821 | 21 | 171 | 0.0 | 0.0 | 0.00 | 0.00 | 0.00 | 85 | 1014.3 |
| 20260906114554 | 21 | 171 | 0.0 | 0.0 | 0.00 | 0.00 | 0.00 | 84 | 1010.9 |
| 20260906114342 | 21 | 171 | 0.0 | 0.0 | 0.00 | 0.00 | 0.00 | 84 | 1014.3 |
| 20260906113834 | 21 | 171 | 0.0 | 0.0 | 0.00 | 0.00 | 0.00 | 84 | 1014.2 |
| 20260906113334 | 21 | 171 | 0.0 | 0.0 | 0.00 | 0.00 | 0.00 | 84 | 1014.2 |
| 20260906113030 | 21 | 171 | 0.0 | 0.0 | 0.00 | 0.00 | 0.00 | 84 | 1010.7 |
| 20260906112825 | 21 | 171 | 0.0 | 0.0 | 0.00 | 0.00 | 0.00 | 84 | 1014.1 |
| 20260906112321 | 21 | 171 | 0.0 | 0.0 | 0.00 | 0.00 | 0.00 | 83 | 1014.1 |
| 20260906111858 | 21 | 171 | 0.0 | 0.0 | 0.00 | 0.00 | 0.00 | 83 | 1014.1 |
| 20260906111607 | 21 | 171 | 0.0 | 0.0 | 0.00 | 0.00 | 0.00 | 83 | 1010.6 |
| 20260906111322 | 21 | 171 | 0.0 | 0.0 | 0.00 | 0.00 | 0.00 | 83 | 1014.1 |
| 20260906110831 | 22 | 171 | 0.0 | 0.0 | 0.00 | 0.00 | 0.00 | 84 | 1014.2 |
| 20260906110319 | 22 | 171 | 0.0 | 0.0 | 0.00 | 0.00 | 0.00 | 83 | 1014.1 |
| 20260906110050 | 21 | 171 | 0.0 | 0.0 | 0.00 | 0.00 | 0.00 | 83 | 1010.7 |
| 20260906105825 | 22 | 171 | 0.0 | 0.0 | 0.00 | 0.00 | 0.00 | 83 | 1014.2 |
| 20260906105344 | 22 | 171 | 0.0 | 0.0 | 0.00 | 0.00 | 0.00 | 83 | 1014.1 |
| 20260906104845 | 22 | 171 | 0.0 | 0.0 | 0.00 | 0.00 | 0.00 | 83 | 1014.2 |
| 20260906104533 | 21 | 171 | 0.0 | 0.0 | 0.00 | 0.00 | 0.00 | 83 | 1010.7 |
| 20260906104346 | 22 | 171 | 0.0 | 0.0 | 0.00 | 0.00 | 0.00 | 82 | 1014.2 |
| 20260906103822 | 22 | 171 | 0.0 | 0.0 | 0.00 | 0.00 | 0.00 | 82 | 1014.1 |
| 20260906103328 | 22 | 171 | 0.0 | 0.0 | 0.00 | 0.00 | 0.00 | 82 | 1014.2 |
| 20260906103050 | 21 | 171 | 0.0 | 0.0 | 0.00 | 0.00 | 0.00 | 82 | 1010.7 |
| 20260906102844 | 22 | 171 | 0.0 | 0.0 | 0.00 | 0.00 | 0.00 | 82 | 1014.1 |
| 20260906102325 | 22 | 171 | 0.0 | 0.0 | 0.00 | 0.00 | 0.00 | 82 | 1014.2 |
| 20260906101843 | 22 | 171 | 0.0 | 0.0 | 0.00 | 0.00 | 0.00 | 82 | 1014.2 |
| 20260906101625 | 22 | 171 | 0.0 | 0.0 | 0.00 | 0.00 | 0.00 | 82 | 1010.7 |
| 20260906101333 | 22 | 171 | 0.0 | 0.0 | 0.00 | 0.00 | 0.00 | 82 | 1014.1 |
| 20260906100833 | 22 | 171 | 0.0 | 0.0 | 0.00 | 0.00 | 0.00 | 82 | 1014.1 |
| 20260906100317 | 22 | 171 | 0.0 | 0.0 | 0.00 | 0.00 | 0.00 | 81 | 1014.2 |
| 20260906100042 | 22 | 171 | 0.0 | 0.0 | 0.00 | 0.00 | 0.00 | 81 | 1010.7 |
| 20260906095838 | 22 | 171 | 0.0 | 0.0 | 0.00 | 0.00 | 0.00 | 81 | 1014.2 |
| 20260906095341 | 22 | 171 | 0.0 | 0.0 | 0.00 | 0.00 | 0.00 | 81 | 1014.2 |
| 20260906094848 | 22 | 171 | 0.0 | 0.0 | 0.00 | 0.00 | 0.00 | 81 | 1014.1 |
| 20260906094610 | 22 | 171 | 0.0 | 0.0 | 0.00 | 0.00 | 0.00 | 81 | 1010.6 |
| 20260906094333 | 22 | 171 | 0.0 | 0.0 | 0.00 | 0.00 | 0.00 | 81 | 1014.1 |
| 20260906093847 | 22 | 171 | 0.0 | 0.0 | 0.00 | 0.00 | 0.00 | 81 | 1014.1 |
| 20260906093345 | 22 | 171 | 0.0 | 0.0 | 0.00 | 0.00 | 0.00 | 81 | 1014.0 |
| 20260906093002 | 22 | 171 | 0.0 | 0.0 | 0.00 | 0.00 | 0.00 | 81 | 1010.5 |
| 20260906092823 | 22 | 171 | 0.0 | 0.0 | 0.00 | 0.00 | 0.00 | 81 | 1013.9 |
| 20260906092325 | 22 | 171 | 0.0 | 0.0 | 0.00 | 0.00 | 0.00 | 80 | 1013.9 |
| 20260906091827 | 22 | 171 | 0.0 | 0.0 | 0.00 | 0.00 | 0.00 | 80 | 1013.9 |
| 20260906091550 | 22 | 171 | 0.0 | 0.0 | 0.00 | 0.00 | 0.00 | 80 | 1010.4 |
| 20260906091319 | 22 | 171 | 0.0 | 0.0 | 0.00 | 0.00 | 0.00 | 80 | 1014.0 |
| 20260906090820 | 22 | 171 | 0.0 | 0.0 | 0.00 | 0.00 | 0.00 | 80 | 1014.0 |
| 20260906090329 | 22 | 171 | 0.0 | 0.0 | 0.00 | 0.00 | 0.00 | 80 | 1014.0 |
| 20260906090038 | 22 | 171 | 0.0 | 0.0 | 0.00 | 0.00 | 0.00 | 79 | 1010.4 |
| 20260906085838 | 22 | 171 | 0.0 | 0.0 | 0.00 | 0.00 | 0.00 | 79 | 1014.0 |
| 20260906085340 | 22 | 171 | 0.0 | 0.0 | 0.00 | 0.00 | 0.00 | 79 | 1013.9 |
| 20260906084819 | 22 | 171 | 0.0 | 0.0 | 0.00 | 0.00 | 0.00 | 78 | 1013.9 |
| 20260906084527 | 22 | 171 | 0.0 | 0.0 | 0.00 | 0.00 | 0.00 | 78 | 1010.4 |
| 20260906084322 | 22 | 171 | 0.0 | 0.0 | 0.00 | 0.00 | 0.00 | 78 | 1013.9 |
| 20260906083825 | 22 | 171 | 0.0 | 0.0 | 0.00 | 0.00 | 0.00 | 77 | 1013.9 |
| 20260906083330 | 23 | 171 | 0.0 | 0.0 | 0.00 | 0.00 | 0.00 | 77 | 1013.9 |
| 20260906083057 | 22 | 171 | 0.0 | 0.0 | 0.00 | 0.00 | 0.00 | 77 | 1010.3 |
| 20260906082836 | 23 | 171 | 0.0 | 0.0 | 0.00 | 0.00 | 0.00 | 77 | 1013.9 |
| 20260906082325 | 23 | 171 | 0.0 | 0.0 | 0.00 | 0.00 | 0.00 | 77 | 1013.9 |
| 20260906081826 | 23 | 171 | 0.0 | 0.0 | 0.00 | 0.00 | 0.00 | 77 | 1014.0 |
| 20260906081530 | 23 | 171 | 0.0 | 0.0 | 0.00 | 0.00 | 0.00 | 77 | 1010.3 |
| 20260906081341 | 23 | 171 | 0.0 | 0.0 | 0.00 | 0.00 | 0.00 | 77 | 1013.9 |
| 20260906080842 | 23 | 171 | 0.0 | 0.0 | 0.00 | 0.00 | 0.00 | 76 | 1013.9 |
| 20260906080319 | 23 | 171 | 0.0 | 0.0 | 0.00 | 0.00 | 0.00 | 76 | 1014.0 |
| 20260906080024 | 23 | 171 | 0.0 | 0.0 | 0.00 | 0.00 | 0.00 | 76 | 1010.4 |
| 20260906075823 | 23 | 171 | 0.0 | 0.0 | 0.00 | 0.00 | 0.00 | 75 | 1014.0 |
| 20260906075327 | 23 | 171 | 0.0 | 0.0 | 0.00 | 0.00 | 0.00 | 75 | 1013.9 |
| 20260906074820 | 23 | 171 | 0.0 | 0.0 | 0.00 | 0.00 | 0.00 | 75 | 1013.9 |
| 20260906074503 | 23 | 171 | 0.0 | 0.0 | 0.00 | 0.00 | 0.00 | 75 | 1010.3 |
| 20260906074357 | 23 | 171 | 0.0 | 0.0 | 0.00 | 0.00 | 0.00 | 75 | 1013.9 |
| 20260906073859 | 23 | 171 | 0.0 | 0.0 | 0.00 | 0.00 | 0.00 | 75 | 1013.8 |
| 20260906073356 | 23 | 171 | 0.0 | 0.0 | 0.00 | 0.00 | 0.00 | 75 | 1013.8 |
| 20260906073056 | 23 | 171 | 0.0 | 0.0 | 0.00 | 0.00 | 0.00 | 75 | 1010.2 |
| 20260906072843 | 23 | 171 | 0.0 | 0.0 | 0.00 | 0.00 | 0.00 | 75 | 1013.8 |
| 20260906072332 | 24 | 171 | 0.0 | 0.0 | 0.00 | 0.00 | 0.00 | 74 | 1013.8 |
| 20260906071832 | 24 | 171 | 0.0 | 0.0 | 0.00 | 0.00 | 0.00 | 74 | 1013.8 |
| 20260906071535 | 23 | 171 | 0.0 | 0.0 | 0.00 | 0.00 | 0.00 | 74 | 1010.2 |
| 20260906071317 | 24 | 171 | 0.0 | 0.0 | 0.00 | 0.00 | 0.00 | 74 | 1013.8 |
| 20260906070843 | 24 | 171 | 0.0 | 0.0 | 0.00 | 0.00 | 0.00 | 74 | 1013.7 |
| 20260906070400 | 24 | 171 | 0.0 | 0.0 | 0.00 | 0.00 | 0.00 | 75 | 1013.7 |
| 20260906070053 | 23 | 171 | 0.0 | 0.0 | 0.00 | 0.00 | 0.00 | 75 | 1010.1 |
| 20260906065841 | 24 | 171 | 0.0 | 0.0 | 0.00 | 0.00 | 0.00 | 75 | 1013.7 |
| 20260906065332 | 24 | 171 | 0.0 | 0.0 | 0.00 | 0.00 | 0.00 | 74 | 1013.6 |
| 20260906064817 | 24 | 171 | 0.0 | 0.0 | 0.00 | 0.00 | 0.00 | 75 | 1013.7 |
| 20260906064532 | 23 | 171 | 0.0 | 0.0 | 0.00 | 0.00 | 0.00 | 75 | 1010.0 |
| 20260906064325 | 24 | 171 | 0.0 | 0.0 | 0.00 | 0.00 | 0.00 | 74 | 1013.6 |
| 20260906063813 | 24 | 171 | 0.0 | 0.0 | 0.00 | 0.00 | 0.00 | 73 | 1013.6 |
| 20260906063347 | 24 | 171 | 0.0 | 0.0 | 0.00 | 0.00 | 0.00 | 73 | 1013.6 |
| 20260906063101 | 23 | 171 | 0.0 | 0.0 | 0.00 | 0.00 | 0.00 | 73 | 1010.0 |
| 20260906062845 | 24 | 171 | 0.0 | 0.0 | 0.00 | 0.00 | 0.00 | 73 | 1013.6 |
| 20260906062316 | 24 | 171 | 0.0 | 0.0 | 0.00 | 0.00 | 0.00 | 73 | 1013.6 |
| 20260906061824 | 24 | 171 | 0.0 | 0.0 | 0.00 | 0.00 | 0.00 | 73 | 1013.7 |
| 20260906061548 | 24 | 171 | 0.0 | 0.0 | 0.00 | 0.00 | 0.00 | 73 | 1010.1 |
| 20260906061329 | 24 | 171 | 0.0 | 0.0 | 0.00 | 0.00 | 0.00 | 73 | 1013.7 |
| 20260906060823 | 24 | 171 | 0.0 | 0.0 | 0.00 | 0.00 | 0.00 | 73 | 1013.8 |
| 20260906060326 | 24 | 171 | 0.0 | 0.0 | 0.00 | 0.00 | 0.00 | 73 | 1013.8 |
| 20260906060004 | 24 | 171 | 0.0 | 0.0 | 0.00 | 0.00 | 0.00 | 73 | 1010.1 |
| 20260906055828 | 25 | 171 | 0.0 | 0.0 | 0.00 | 0.00 | 0.00 | 73 | 1013.7 |
| 20260906055328 | 25 | 171 | 0.0 | 0.0 | 0.00 | 0.00 | 0.00 | 72 | 1013.8 |
| 20260906054820 | 25 | 171 | 0.0 | 0.0 | 0.00 | 0.00 | 0.00 | 71 | 1013.9 |
| 20260906054606 | 25 | 171 | 0.0 | 0.0 | 0.00 | 0.00 | 0.00 | 71 | 1010.2 |
| 20260906054347 | 25 | 171 | 0.0 | 0.0 | 0.00 | 0.00 | 0.00 | 71 | 1013.8 |
| 20260906053847 | 25 | 171 | 0.0 | 0.0 | 0.00 | 0.00 | 0.00 | 71 | 1013.8 |
| 20260906053318 | 25 | 171 | 0.0 | 0.0 | 0.00 | 0.00 | 0.00 | 71 | 1013.9 |
| 20260906053016 | 25 | 171 | 0.0 | 0.0 | 0.00 | 0.00 | 0.00 | 71 | 1010.1 |
| 20260906052824 | 25 | 171 | 0.0 | 0.0 | 0.00 | 0.00 | 0.00 | 71 | 1013.8 |
| 20260906052332 | 25 | 171 | 0.0 | 0.0 | 0.00 | 0.00 | 0.00 | 71 | 1013.7 |
| 20260906051826 | 25 | 171 | 0.0 | 0.0 | 0.00 | 0.00 | 0.00 | 70 | 1013.8 |
| 20260906051503 | 25 | 171 | 0.0 | 0.0 | 0.00 | 0.00 | 0.00 | 70 | 1010.1 |
| 20260906051327 | 25 | 171 | 0.0 | 0.0 | 0.00 | 0.00 | 0.00 | 70 | 1013.8 |
| 20260906050825 | 25 | 171 | 0.0 | 0.0 | 0.00 | 0.00 | 0.00 | 69 | 1013.8 |
| 20260906050326 | 26 | 171 | 0.0 | 0.0 | 0.00 | 0.00 | 0.00 | 69 | 1013.7 |
| 20260906050026 | 25 | 171 | 0.0 | 0.0 | 0.00 | 0.00 | 0.00 | 68 | 1010.1 |
| 20260906045835 | 26 | 171 | 0.0 | 0.0 | 0.00 | 0.00 | 0.00 | 68 | 1013.7 |
| 20260906045354 | 26 | 171 | 0.0 | 0.0 | 0.00 | 0.00 | 0.00 | 67 | 1013.8 |
| 20260906044824 | 26 | 171 | 0.0 | 0.0 | 0.00 | 0.00 | 0.00 | 67 | 1013.7 |
| 20260906044558 | 26 | 171 | 0.0 | 0.0 | 0.00 | 0.00 | 0.00 | 67 | 1010.1 |
| 20260906044318 | 26 | 171 | 0.0 | 0.0 | 0.00 | 0.00 | 0.00 | 66 | 1013.8 |
| 20260906043819 | 26 | 171 | 0.0 | 0.0 | 0.00 | 0.00 | 0.00 | 65 | 1013.7 |
| 20260906043321 | 26 | 171 | 0.0 | 0.0 | 0.00 | 0.00 | 0.00 | 65 | 1013.7 |
| 20260906043034 | 26 | 171 | 0.0 | 0.0 | 0.00 | 0.00 | 0.00 | 65 | 1010.0 |
| 20260906042839 | 27 | 171 | 0.0 | 0.0 | 0.00 | 0.00 | 0.00 | 65 | 1013.5 |
| 20260906042341 | 27 | 171 | 0.0 | 0.0 | 0.00 | 0.00 | 0.00 | 64 | 1013.6 |
| 20260906041825 | 27 | 171 | 0.0 | 0.0 | 0.00 | 0.00 | 0.00 | 63 | 1013.5 |
| 20260906041537 | 27 | 171 | 0.0 | 0.0 | 0.00 | 0.00 | 0.00 | 62 | 1010.0 |
| 20260906041330 | 27 | 171 | 0.0 | 0.0 | 0.00 | 0.00 | 0.00 | 62 | 1013.6 |
| 20260906040824 | 27 | 171 | 0.0 | 0.0 | 0.00 | 0.00 | 0.00 | 61 | 1013.6 |
| 20260906040340 | 28 | 171 | 0.0 | 0.0 | 0.00 | 0.00 | 0.00 | 61 | 1013.6 |
| 20260906040001 | 28 | 171 | 0.0 | 0.0 | 0.00 | 0.00 | 0.00 | 61 | 1010.0 |
| 20260906035835 | 28 | 171 | 0.0 | 0.0 | 0.00 | 0.00 | 0.00 | 61 | 1013.6 |
| 20260906035335 | 28 | 171 | 0.0 | 0.0 | 0.00 | 0.00 | 0.00 | 60 | 1013.5 |
| 20260906034823 | 28 | 171 | 0.0 | 0.0 | 0.00 | 0.00 | 0.00 | 59 | 1013.6 |
| 20260906034602 | 28 | 171 | 0.0 | 0.0 | 0.00 | 0.00 | 0.00 | 59 | 1010.0 |
| 20260906034323 | 28 | 171 | 0.0 | 0.0 | 0.00 | 0.00 | 0.00 | 58 | 1013.4 |
| 20260906033843 | 28 | 171 | 0.0 | 0.0 | 0.00 | 0.00 | 0.00 | 57 | 1013.3 |
| 20260906033347 | 28 | 171 | 0.0 | 0.0 | 0.00 | 0.00 | 0.00 | 57 | 1013.2 |
| 20260906033058 | 28 | 171 | 0.0 | 0.0 | 0.00 | 0.00 | 0.00 | 57 | 1009.5 |
| 20260906032818 | 29 | 171 | 0.0 | 0.0 | 0.00 | 0.00 | 0.00 | 57 | 1013.1 |
| 20260906032319 | 29 | 171 | 0.0 | 0.0 | 0.00 | 0.00 | 0.00 | 57 | 1013.1 |
| 20260906031825 | 29 | 171 | 0.0 | 0.0 | 0.00 | 0.00 | 0.00 | 57 | 1013.0 |
| 20260906031535 | 28 | 171 | 0.0 | 0.0 | 0.00 | 0.00 | 0.00 | 56 | 1009.3 |
| 20260906031326 | 29 | 171 | 0.0 | 0.0 | 0.00 | 0.00 | 0.00 | 57 | 1012.9 |
| 20260906030819 | 29 | 171 | 0.0 | 0.0 | 0.00 | 0.00 | 0.00 | 57 | 1013.0 |
| 20260906030351 | 29 | 171 | 0.0 | 0.0 | 0.00 | 0.00 | 0.00 | 56 | 1013.1 |
| 20260906025856 | 29 | 171 | 0.0 | 0.0 | 0.00 | 0.00 | 0.00 | 55 | 1013.1 |
| 20260906025323 | 29 | 171 | 0.0 | 0.0 | 0.00 | 0.00 | 0.00 | 55 | 1013.1 |
| 20260906024824 | 29 | 171 | 0.0 | 0.0 | 0.00 | 0.00 | 0.00 | 55 | 1013.0 |
| 20260906024516 | 29 | 171 | 0.0 | 0.0 | 0.00 | 0.00 | 0.00 | 55 | 1009.3 |
| 20260906024330 | 29 | 171 | 0.0 | 0.0 | 0.00 | 0.00 | 0.00 | 55 | 1012.9 |
| 20260906023816 | 29 | 171 | 0.0 | 0.0 | 0.00 | 0.00 | 0.00 | 55 | 1012.8 |
| 20260906023319 | 29 | 171 | 0.0 | 0.0 | 0.00 | 0.00 | 0.00 | 55 | 1012.7 |
| 20260906023044 | 29 | 171 | 0.0 | 0.0 | 0.00 | 0.00 | 0.00 | 55 | 1009.1 |
| 20260906022843 | 29 | 171 | 0.0 | 0.0 | 0.00 | 0.00 | 0.00 | 55 | 1012.7 |
| 20260906022322 | 29 | 171 | 0.0 | 0.0 | 0.00 | 0.00 | 0.00 | 55 | 1012.6 |
| 20260906021845 | 29 | 171 | 0.0 | 0.0 | 0.00 | 0.00 | 0.00 | 55 | 1012.5 |
| 20260906021606 | 29 | 171 | 0.0 | 0.0 | 0.00 | 0.00 | 0.00 | 55 | 1008.8 |
| 20260906021333 | 30 | 171 | 0.0 | 0.0 | 0.00 | 0.00 | 0.00 | 56 | 1012.5 |
| 20260906020814 | 30 | 171 | 0.0 | 0.0 | 0.00 | 0.00 | 0.00 | 55 | 1012.4 |
| 20260906020318 | 30 | 171 | 0.0 | 0.0 | 0.00 | 0.00 | 0.00 | 56 | 1012.3 |
| 20260906020043 | 30 | 171 | 0.0 | 0.0 | 0.00 | 0.00 | 0.00 | 55 | 1008.7 |
| 20260906015840 | 30 | 171 | 0.0 | 0.0 | 0.00 | 0.00 | 0.00 | 54 | 1012.3 |
| 20260906015341 | 30 | 171 | 0.0 | 0.0 | 0.00 | 0.00 | 0.00 | 52 | 1012.3 |
| 20260906014832 | 30 | 171 | 0.0 | 0.0 | 0.00 | 0.00 | 0.00 | 52 | 1012.2 |
| 20260906014522 | 30 | 171 | 0.0 | 0.0 | 0.00 | 0.00 | 0.00 | 52 | 1008.5 |
| 20260906014317 | 30 | 171 | 0.0 | 0.0 | 0.00 | 0.00 | 0.00 | 52 | 1012.1 |
| 20260906013842 | 30 | 171 | 0.0 | 0.0 | 0.00 | 0.00 | 0.00 | 52 | 1012.0 |
| 20260906013316 | 30 | 171 | 0.0 | 0.0 | 0.00 | 0.00 | 0.00 | 51 | 1012.1 |
| 20260906013006 | 30 | 171 | 0.0 | 0.0 | 0.00 | 0.00 | 0.00 | 51 | 1008.3 |
| 20260906012821 | 31 | 171 | 0.0 | 0.0 | 0.00 | 0.00 | 0.00 | 52 | 1012.0 |
| 20260906012325 | 31 | 171 | 0.0 | 0.0 | 0.00 | 0.00 | 0.00 | 51 | 1012.0 |
| 20260906011848 | 31 | 171 | 0.0 | 0.0 | 0.00 | 0.00 | 0.00 | 50 | 1012.0 |
| 20260906011517 | 31 | 171 | 0.0 | 0.0 | 0.00 | 0.00 | 0.00 | 51 | 1008.2 |
| 20260906011335 | 31 | 171 | 0.0 | 0.0 | 0.00 | 0.00 | 0.00 | 51 | 1012.0 |
| 20260906010836 | 32 | 171 | 0.0 | 0.0 | 0.00 | 0.00 | 0.00 | 50 | 1012.0 |
| 20260906010340 | 32 | 171 | 0.0 | 0.0 | 0.00 | 0.00 | 0.00 | 49 | 1012.1 |
| 20260906010146 | 32 | 171 | 0.0 | 0.0 | 0.00 | 0.00 | 0.00 | 49 | 1008.4 |
| 20260906005826 | 32 | 171 | 0.0 | 0.0 | 0.00 | 0.00 | 0.00 | 48 | 1012.0 |
| 20260906005331 | 32 | 171 | 0.0 | 0.0 | 0.00 | 0.00 | 0.00 | 47 | 1012.0 |
| 20260906004833 | 33 | 171 | 0.0 | 0.0 | 0.00 | 0.00 | 0.00 | 46 | 1012.0 |
| 20260906004556 | 32 | 171 | 0.0 | 0.0 | 0.00 | 0.00 | 0.00 | 46 | 1008.1 |
| 20260906004333 | 33 | 171 | 0.0 | 0.0 | 0.00 | 0.00 | 0.00 | 46 | 1011.9 |
| 20260906003822 | 33 | 171 | 0.0 | 0.0 | 0.00 | 0.00 | 0.00 | 46 | 1011.8 |
| 20260906003359 | 34 | 171 | 0.0 | 0.0 | 0.00 | 0.00 | 0.00 | 46 | 1011.7 |
| 20260906003109 | 33 | 171 | 0.0 | 0.0 | 0.00 | 0.00 | 0.00 | 45 | 1008.1 |
| 20260906002827 | 34 | 171 | 0.0 | 0.0 | 0.00 | 0.00 | 0.00 | 45 | 1011.8 |
| 20260906002330 | 35 | 171 | 0.0 | 0.0 | 0.00 | 0.00 | 0.00 | 44 | 1011.7 |
| 20260906001838 | 35 | 171 | 0.0 | 0.0 | 0.00 | 0.00 | 0.00 | 42 | 1011.8 |
| 20260906001542 | 35 | 171 | 0.0 | 0.0 | 0.00 | 0.00 | 0.00 | 42 | 1008.0 |
| 20260906001320 | 35 | 171 | 0.0 | 0.0 | 0.00 | 0.00 | 0.00 | 41 | 1011.8 |
| 20260906000839 | 35 | 171 | 0.0 | 0.0 | 0.00 | 0.00 | 0.00 | 40 | 1011.8 |
| 20260906000342 | 35 | 171 | 0.0 | 0.0 | 0.00 | 0.00 | 0.00 | 40 | 1011.9 |
| 20260906000006 | 35 | 171 | 0.0 | 0.0 | 0.00 | 0.00 | 0.00 | 39 | 1008.2 |
| 20260905235838 | 35 | 171 | 0.0 | 0.0 | 0.00 | 0.00 | 0.00 | 38 | 1011.9 |
| 20260905235317 | 35 | 171 | 0.0 | 0.0 | 0.00 | 0.00 | 0.00 | 38 | 1011.9 |
| 20260905234818 | 36 | 171 | 0.0 | 0.0 | 0.00 | 0.00 | 0.00 | 38 | 1011.8 |
| 20260905234525 | 35 | 171 | 0.0 | 0.0 | 0.00 | 0.00 | 0.00 | 37 | 1008.1 |
| 20260905234335 | 36 | 171 | 0.0 | 8.0 | 0.00 | 0.00 | 0.00 | 37 | 1011.8 |
| 20260905233842 | 36 | 171 | 0.0 | 8.0 | 0.00 | 0.00 | 0.00 | 36 | 1011.7 |
| 20260905233314 | 36 | 180 | 0.0 | 1.6 | 0.00 | 0.00 | 0.00 | 37 | 1011.8 |
| 20260905233009 | 36 | 165 | 0.0 | 1.6 | 0.00 | 0.00 | 0.00 | 37 | 1008.2 |
| 20260905232822 | 36 | 202 | 0.0 | 1.6 | 0.00 | 0.00 | 0.00 | 37 | 1011.8 |
| 20260905232326 | 36 | 179 | 0.0 | 6.4 | 0.00 | 0.00 | 0.00 | 36 | 1011.9 |
| 20260905231835 | 36 | 126 | 0.0 | 6.4 | 0.00 | 0.00 | 0.00 | 36 | 1011.9 |
| 20260905231543 | 36 | 162 | 0.0 | 6.4 | 0.00 | 0.00 | 0.00 | 36 | 1008.2 |
| 20260905231335 | 36 | 207 | 0.0 | 6.4 | 0.00 | 0.00 | 0.00 | 36 | 1012.0 |
| 20260905230904 | 37 | 215 | 0.0 | 8.0 | 0.00 | 0.00 | 0.00 | 36 | 1011.9 |
| 20260905230343 | 37 | 168 | 1.6 | 8.0 | 0.00 | 0.00 | 0.00 | 36 | 1011.9 |
| 20260905230112 | 37 | 167 | 1.6 | 6.4 | 0.00 | 0.00 | 0.00 | 36 | 1008.1 |
| 20260905225832 | 37 | 197 | 0.0 | 11.3 | 0.00 | 0.00 | 0.00 | 35 | 1011.8 |
| 20260905225319 | 37 | 196 | 4.8 | 11.3 | 0.00 | 0.00 | 0.00 | 35 | 1011.9 |
| 20260905224845 | 37 | 225 | 0.0 | 4.8 | 0.00 | 0.00 | 0.00 | 35 | 1011.8 |
| 20260905224600 | 37 | 201 | 0.0 | 6.4 | 0.00 | 0.00 | 0.00 | 36 | 1008.1 |
| 20260905224352 | 37 | 206 | 0.0 | 8.0 | 0.00 | 0.00 | 0.00 | 35 | 1011.9 |
| 20260905223819 | 37 | 227 | 3.2 | 11.3 | 0.00 | 0.00 | 0.00 | 35 | 1012.0 |
| 20260905223358 | 37 | 169 | 3.2 | 11.3 | 0.00 | 0.00 | 0.00 | 37 | 1011.9 |
| 20260905223105 | 37 | 142 | 3.2 | 11.3 | 0.00 | 0.00 | 0.00 | 35 | 1008.1 |
| 20260905222859 | 37 | 126 | 0.0 | 6.4 | 0.00 | 0.00 | 0.00 | 36 | 1011.9 |
| 20260905222341 | 37 | 178 | 0.0 | 19.3 | 0.00 | 0.00 | 0.00 | 35 | 1011.8 |
| 20260905221839 | 37 | 207 | 4.8 | 19.3 | 0.00 | 0.00 | 0.00 | 36 | 1011.8 |
| 20260905221606 | 37 | 176 | 3.2 | 11.3 | 0.00 | 0.00 | 0.00 | 35 | 1008.0 |
| 20260905221328 | 38 | 233 | 0.0 | 9.7 | 0.00 | 0.00 | 0.00 | 36 | 1011.8 |
| 20260905220817 | 38 | 163 | 0.0 | 8.0 | 0.00 | 0.00 | 0.00 | 35 | 1011.8 |
| 20260905220328 | 38 | 182 | 1.6 | 12.9 | 0.00 | 0.00 | 0.00 | 36 | 1011.8 |
| 20260905220032 | 37 | 178 | 0.0 | 12.9 | 0.00 | 0.00 | 0.00 | 37 | 1008.0 |
| 20260905215827 | 38 | 208 | 1.6 | 12.9 | 0.00 | 0.00 | 0.00 | 36 | 1011.8 |
| 20260905215335 | 38 | 203 | 1.6 | 6.4 | 0.00 | 0.00 | 0.00 | 36 | 1011.8 |
| 20260905214838 | 37 | 175 | 0.0 | 1.6 | 0.00 | 0.00 | 0.00 | 36 | 1011.8 |
| 20260905214607 | 37 | 213 | 0.0 | 4.8 | 0.00 | 0.00 | 0.00 | 38 | 1008.1 |
| 20260905214327 | 37 | 221 | 0.0 | 8.0 | 0.00 | 0.00 | 0.00 | 37 | 1011.8 |
| 20260905213832 | 37 | 184 | 1.6 | 8.0 | 0.00 | 0.00 | 0.00 | 36 | 1011.9 |
| 20260905213337 | 38 | 170 | 0.0 | 9.7 | 0.00 | 0.00 | 0.00 | 36 | 1011.9 |
| 20260905213027 | 37 | 186 | 1.6 | 9.7 | 0.00 | 0.00 | 0.00 | 36 | 1008.1 |
| 20260905212825 | 38 | 165 | 0.0 | 9.7 | 0.00 | 0.00 | 0.00 | 36 | 1011.9 |
| 20260905212325 | 38 | 194 | 0.0 | 9.7 | 0.00 | 0.00 | 0.00 | 36 | 1011.9 |
| 20260905211827 | 38 | 156 | 1.6 | 12.9 | 0.00 | 0.00 | 0.00 | 36 | 1011.9 |
| 20260905211604 | 37 | 205 | 1.6 | 12.9 | 0.00 | 0.00 | 0.00 | 37 | 1008.3 |
| 20260905211352 | 38 | 179 | 1.6 | 12.9 | 0.00 | 0.00 | 0.00 | 37 | 1011.9 |
| 20260905210839 | 37 | 213 | 0.0 | 11.3 | 0.00 | 0.00 | 0.00 | 38 | 1011.9 |
| 20260905210359 | 38 | 209 | 1.6 | 9.7 | 0.00 | 0.00 | 0.00 | 36 | 1011.9 |
| 20260905210117 | 37 | 132 | 1.6 | 19.3 | 0.00 | 0.00 | 0.00 | 37 | 1008.3 |
| 20260905205824 | 38 | 227 | 0.0 | 19.3 | 0.00 | 0.00 | 0.00 | 37 | 1012.0 |
| 20260905205358 | 38 | 204 | 4.8 | 19.3 | 0.00 | 0.00 | 0.00 | 36 | 1012.0 |
| 20260905204836 | 38 | 146 | 3.2 | 11.3 | 0.00 | 0.00 | 0.00 | 37 | 1012.1 |
| 20260905204520 | 37 | 180 | 1.6 | 11.3 | 0.00 | 0.00 | 0.00 | 39 | 1008.4 |
| 20260905204320 | 37 | 149 | 1.6 | 9.7 | 0.00 | 0.00 | 0.00 | 37 | 1012.3 |
| 20260905203844 | 38 | 194 | 0.0 | 9.7 | 0.00 | 0.00 | 0.00 | 37 | 1012.4 |
| 20260905203330 | 38 | 130 | 1.6 | 8.0 | 0.00 | 0.00 | 0.00 | 37 | 1012.4 |
| 20260905203056 | 37 | 209 | 0.0 | 4.8 | 0.00 | 0.00 | 0.00 | 37 | 1008.7 |
| 20260905202823 | 38 | 126 | 0.0 | 11.3 | 0.00 | 0.00 | 0.00 | 38 | 1012.4 |
| 20260905202326 | 38 | 183 | 1.6 | 11.3 | 0.00 | 0.00 | 0.00 | 38 | 1012.7 |
| 20260905201828 | 37 | 129 | 0.0 | 9.7 | 0.00 | 0.00 | 0.00 | 35 | 1012.7 |
| 20260905201532 | 37 | 194 | 0.0 | 1.6 | 0.00 | 0.00 | 0.00 | 37 | 1009.2 |
| 20260905201331 | 37 | 189 | 0.0 | 11.3 | 0.00 | 0.00 | 0.00 | 38 | 1012.9 |
| 20260905200835 | 37 | 129 | 1.6 | 11.3 | 0.00 | 0.00 | 0.00 | 38 | 1012.9 |
| 20260905200321 | 37 | 144 | 1.6 | 16.1 | 0.00 | 0.00 | 0.00 | 38 | 1012.9 |
| 20260905200006 | 37 | 105 | 1.6 | 16.1 | 0.00 | 0.00 | 0.00 | 38 | 1009.3 |
| 20260905195824 | 37 | 135 | 1.6 | 12.9 | 0.00 | 0.00 | 0.00 | 38 | 1013.0 |
| 20260905195327 | 37 | 192 | 0.0 | 8.0 | 0.00 | 0.00 | 0.00 | 38 | 1013.0 |
| 20260905194828 | 37 | 215 | 3.2 | 8.0 | 0.00 | 0.00 | 0.00 | 41 | 1013.1 |
| 20260905194552 | 37 | 134 | 0.0 | 9.7 | 0.00 | 0.00 | 0.00 | 39 | 1009.4 |
| 20260905194319 | 37 | 174 | 0.0 | 9.7 | 0.00 | 0.00 | 0.00 | 38 | 1013.2 |
| 20260905193850 | 37 | 180 | 1.6 | 9.7 | 0.00 | 0.00 | 0.00 | 40 | 1013.2 |